Home > Weather > Tromsø > Past weeks

Flag for Norway Weather for the Past 2 Weeks in Tromsø, Norway

Now
46 °F

Overcast.


Feels Like: 41 °F
Forecast: 42 / 45 °F
Wind: 8 mph from Southwest

Location: Tromso / Langnes

Current Time: May 7, 2016 at 3:02:02 AM

Latest Report: May 7, 2016 at 2:00 AM


Visibility: 31 mi

Pressure: 30.09 "Hg

Humidity: 77%

Dew Point: 39 °F

Location of TromsøLocation

Historic Weather in Tromsø — Graph

°F

Tromsø Temperature Yesterday

Maximum temperature yesterday: 52 °F (at 2:00 PM)
Minimum temperature yesterday: 42 °F (at 2:00 AM)
Average temperature yesterday: 47 °F

High & Low Weather Summary for the Past Weeks

 TemperatureHumidityPressure
High60 °F (Apr 29, 4:00 PM)93% (Apr 23, 5:00 AM)30.36 "Hg (Apr 23, 5:00 AM)
Low28 °F (Apr 22, 4:00 AM)30% (Apr 28, 5:00 PM)29.78 "Hg (Apr 27, 3:00 PM)
Average44 °F61%30.02 "Hg
* Reported Apr 22 2:00 AM — May 7 2:00 AM, Tromsø, Weather by CustomWeather, © 2016

Note: Actual official high and low records may vary slightly from our data, if they occured in-between our weather recording intervals... More about our weather records

Advertising

Tromsø Weather History for the Previous 24 Hours

Scroll right to see more
 ConditionsComfort  
Time TempWeatherWind HumidityBarometerVisibility
2:00 AM
Sat, May 7
46 °FOvercast.8 mph77%30.09 "Hg31 mi
1:00 AM46 °FRain showers. Overcast.8 mph77%30.09 "Hg17 mi
12:00 AM46 °FRain showers. Overcast.7 mph75%30.08 "Hg15 mi
11:00 PM
Fri, May 6
46 °FDrizzle. Overcast.6 mph75%30.07 "Hg28 mi
10:00 PM47 °FOvercast.6 mph74%30.06 "Hg22 mi
9:00 PM47 °FOvercast.8 mph73%30.06 "Hg19 mi
8:00 PM48 °FOvercast.8 mph72%30.06 "Hg25 mi
7:00 PM49 °FOvercast.8 mph69%30.06 "Hg31 mi
6:00 PM50 °FOvercast.9 mph65%30.05 "Hg31 mi
5:00 PM49 °FOvercast.8 mph70%30.05 "Hg19 mi
4:00 PM51 °FOvercast.6 mph60%30.04 "Hg28 mi
3:00 PM52 °FPassing clouds.8 mph59%30.03 "Hg25 mi
2:00 PM52 °FSunny.7 mph57%30.03 "Hg25 mi
1:00 PM49 °FPartly sunny.8 mph67%30.04 "Hg19 mi
12:00 PM47 °FOvercast.5 mph73%30.05 "Hg28 mi
11:00 AM46 °FDrizzle. Overcast.5 mph78%30.05 "Hg17 mi
10:00 AM47 °FRain showers. Overcast.5 mph71%30.05 "Hg19 mi
9:00 AM46 °FOvercast.2 mph73%30.05 "Hg31 mi
8:00 AM45 °FPartly sunny.2 mph75%30.05 "Hg28 mi
7:00 AM44 °FOvercast.1 mph74%30.05 "Hg28 mi
6:00 AM44 °FOvercast.1 mph80%30.05 "Hg28 mi
5:00 AM43 °FPartly sunny.1 mph81%30.06 "Hg31 mi
4:00 AM42 °FOvercast.No wind83%30.08 "Hg31 mi
3:00 AM43 °FOvercast.2 mph81%30.10 "Hg31 mi
Weather by CustomWeather, © 2016

See weather overviewHow to use our weather pages